Volver al catálogo

STARLINK-31059

ActivoComunicacionesVLEO
NORAD 58596·PAYLOAD·🇺🇸 United States

Lanzado Dec 19, 2023 desde Cape Canaveral Space Force Station

Loading…

Próximos Pases (próximas 24 horas)

TLE

ActualizadoSource: CelesTrak SupGP

Época: Sep 15, 2026, 01:47 UTC

1 58596C 23200H   26258.07479167 -.00010418  00000+0 -37756-3 0  2588
2 58596  43.0040  22.5844 0001434 265.0884 144.4821 15.27565007    19

Sigue STARLINK-31059 en tiempo real con AllMySat

Download on the App Store